PAGEOS 1 DEB, 2256

Orbit data source: Space-Track

PAGEOS 1 DEB, 2256 is space debris in LEO originally from a launch on Fri, 24 Jun 1966 UTC launched from the Air Force Western Test Range (AFWTR). Debris objects in space refer to the collection of defunct objects orbiting the Earth. Examples of debris include non-operational satellites, rocket bodies, and fragments generated from explosions, collisions, or faulty payload assembly.

Loading next visibility...
Identifier
2256, 1966-056C
Orbit
LEO
Country
Flag of USUS
Related business
Manufacturer
Goodyear
Mission
Spacecraft
Bus & Motor
ECHO CANISTER, Unknown motor
Mass
9 kg wet, 9 kg dry
Launch date (UTC)
1966-06-24 (60 years ago)
Launch vehicle
Unknown
Launch site
Air Force Western Test Range (AFWTR)
Object type
Payload
Rocket body
Debris
Shape & HBR
Unknown
Radar Cross Section
Large (>1 m²)

Expand to show TLE details & history
Last TLE update: 2 days ago

TLE from 2 days ago
0 PAGEOS 1 DEB
1 02256U 66056C   26072.23365371 -.00000075  00000-0 -75130-1 0  9996
2 02256  86.9440 167.7509 0029157 253.8555 105.9041  7.93543815730869
Epoch: 2026-03-13T05:36Z
TLE epoch observation values (Epoch: 2026-03-13T05:36:27.680Z)
Latitude
-0°
Longitude
-87.23656°
Altitude
4,249.966 km
Speed
6.122 km/s
True Right ascension
11h 11m 00s
True Declination
0° 00' 00"
Sunlit
Object was in full shadow at epoch
Visualization orbit readout
Latitude
Unknown
Longitude
Unknown
Altitude
Unknown
Speed
Unknown
Apparent Right ascension
Unknown
Apparent Declination
Unknown
Sunlit
N/A
Visualization observer readout
Local Sidereal Time
13:26:01
Azimuth
Unknown
Elevation
Unknown
Doppler factor
Unknown
Orbital elements
Apogee altitude
4,268.24 km
Perigee altitude
4,206.337 km
Semi-major axis
10,615.425 km
Eccentricity
0.00292
Inclination
86.944°
RAAN
167.7509°
Arg. of periapsis
253.8555°
True anomaly
106.2251°
Mean anomaly
105.9041°
Eccentric anomaly
106.06463°
Mean motion
1.98444 °/min
Orbital period
181.41 mins
BSTAR
-0.07513
Loading maneuver chart data...
Computing Atmospheric mass density...

Documentation

Showing up to 5 results
|